Zurück zum Katalog

STARLINK-11448

AktivKommunikationVLEO
NORAD 63005·PAYLOAD·🇺🇸 United States

Gestartet Feb 15, 2025 von Cape Canaveral Space Force Station

Loading…

Nächste Überflüge (nächste 24 Stunden)

TLE

AktuellSource: CelesTrak SupGP

Epoche: Sep 15, 2026, 02:11 UTC

1 63005C 25032A   26258.09145833  .00081573  00000+0  63341-3 0  2583
2 63005  43.0003 133.3269 0001681 274.2592 166.3470 15.70804003    16

Verfolge STARLINK-11448 in Echtzeit mit AllMySat

Download on the App Store